TOM63E EHAM-EGAC

Flight info

Callsign TOM63E
Flight time 1h 31m
Altitude 36000
Route BERGI L602 NALAX L46 GETNO DCT REMSI DCT NINEB M148 MAGEE
Aircraft B738/M-SDE2E3FGHIRWXY/LB1

Departure

Time 2026-05-04 18:57
Airport Amsterdam Airport Schiphol (EHAM)

Arrival

Time 2026-05-04 20:28
Airport George Best Belfast City Airport (EGAC)
Time Latitude Longitude Altitude Speed Heading
2026-05-04 18:10 52.31357 4.75589 6 ft 0 kts 86°
2026-05-04 18:26 52.30986 4.75355 -4 ft 0 kts 149°
2026-05-04 18:37 52.30993 4.75348 -4 ft 4 kts 146°
2026-05-04 18:37 52.31012 4.75320 -3 ft 4 kts 120°
2026-05-04 18:38 52.31019 4.75281 -3 ft 4 kts 75°
2026-05-04 18:38 52.31014 4.75260 -3 ft 1 kts 58°
2026-05-04 18:38 52.31013 4.75257 -3 ft 1 kts 58°
2026-05-04 18:42 52.31014 4.75261 -3 ft 2 kts 58°
2026-05-04 18:42 52.31038 4.75325 -3 ft 10 kts 58°
2026-05-04 18:42 52.31083 4.75440 -2 ft 6 kts 54°
2026-05-04 18:43 52.31095 4.75466 -2 ft 3 kts 52°
2026-05-04 18:43 52.31103 4.75482 -2 ft 0 kts 42°
2026-05-04 18:43 52.31114 4.75493 -2 ft 4 kts 25°
2026-05-04 18:44 52.31149 4.75496 0 ft 6 kts 358°
2026-05-04 18:44 52.31178 4.75494 2 ft 7 kts 358°
2026-05-04 18:44 52.31202 4.75492 3 ft 2 kts 356°
2026-05-04 18:44 52.31225 4.75489 4 ft 5 kts 356°
2026-05-04 18:45 52.31270 4.75485 5 ft 8 kts 356°
2026-05-04 18:45 52.31344 4.75477 6 ft 13 kts 357°
2026-05-04 18:45 52.31446 4.75469 9 ft 16 kts 356°
2026-05-04 18:45 52.31508 4.75413 10 ft 12 kts 283°
2026-05-04 18:46 52.31505 4.75227 8 ft 20 kts 266°
2026-05-04 18:46 52.31499 4.75020 12 ft 15 kts 267°
2026-05-04 18:46 52.31493 4.74824 13 ft 20 kts 267°
2026-05-04 18:46 52.31487 4.74617 16 ft 17 kts 267°
2026-05-04 18:47 52.31479 4.74394 14 ft 23 kts 268°
2026-05-04 18:47 52.31582 4.74295 14 ft 21 kts
2026-05-04 18:47 52.31731 4.74309 13 ft 24 kts
2026-05-04 18:47 52.31912 4.74326 7 ft 9 kts
2026-05-04 18:48 52.31986 4.74333 7 ft 0 kts
2026-05-04 18:48 52.32007 4.74325 7 ft 6 kts 334°
2026-05-04 18:48 52.32033 4.74263 8 ft 5 kts 272°
2026-05-04 18:48 52.32034 4.74228 9 ft 0 kts 272°
2026-05-04 18:49 52.32034 4.74227 9 ft 0 kts 272°
2026-05-04 18:49 52.32035 4.74204 10 ft 4 kts 272°
2026-05-04 18:50 52.32036 4.74131 11 ft 9 kts 272°
2026-05-04 18:50 52.32040 4.74005 13 ft 13 kts 272°
2026-05-04 18:50 52.32044 4.73839 17 ft 16 kts 272°
2026-05-04 18:50 52.32053 4.73626 18 ft 22 kts 274°
2026-05-04 18:51 52.32095 4.73352 10 ft 21 kts 307°
2026-05-04 18:51 52.32220 4.73169 3 ft 27 kts 319°
2026-05-04 18:51 52.32362 4.72968 -3 ft 25 kts 320°
2026-05-04 18:51 52.32500 4.72776 -4 ft 27 kts 320°
2026-05-04 18:52 52.32640 4.72581 -2 ft 25 kts 319°
2026-05-04 18:52 52.32704 4.72474 0 ft 1 kts 311°
2026-05-04 18:52 52.32712 4.72459 1 ft 3 kts 311°
2026-05-04 18:52 52.32745 4.72398 -8 ft 14 kts 312°
2026-05-04 18:53 52.32813 4.72276 -1 ft 16 kts 311°
2026-05-04 18:53 52.32894 4.72128 -3 ft 19 kts 311°
2026-05-04 18:53 52.32976 4.71968 -2 ft 18 kts 310°
2026-05-04 18:53 52.33061 4.71813 1 ft 18 kts 313°
2026-05-04 18:54 52.33140 4.71664 6 ft 17 kts 306°
2026-05-04 18:54 52.33128 4.71486 10 ft 17 kts 229°
2026-05-04 18:54 52.33044 4.71358 11 ft 17 kts 221°
2026-05-04 18:54 52.32949 4.71225 13 ft 18 kts 221°
2026-05-04 18:55 52.32866 4.71070 14 ft 19 kts 256°
2026-05-04 18:55 52.32880 4.70918 16 ft 3 kts 305°
2026-05-04 18:55 52.32901 4.70886 15 ft 5 kts 331°
2026-05-04 18:56 52.32925 4.70883 15 ft 0 kts
2026-05-04 18:56 52.32930 4.70883 15 ft 3 kts
2026-05-04 18:56 52.32938 4.70884 14 ft 0 kts
2026-05-04 18:56 52.32940 4.70884 14 ft 3 kts
2026-05-04 18:57 52.33275 4.70919 12 ft 97 kts
2026-05-04 18:57 52.34230 4.71010 87 ft 172 kts
2026-05-04 18:57 52.35497 4.71102 1029 ft 186 kts
2026-05-04 18:57 52.36781 4.71195 2295 ft 192 kts
2026-05-04 18:58 52.37706 4.71286 2780 ft 211 kts
2026-05-04 18:58 52.39797 4.71521 3865 ft 232 kts
2026-05-04 18:58 52.40903 4.71642 4559 ft 239 kts
2026-05-04 18:58 52.43156 4.71876 5710 ft 259 kts
2026-05-04 18:59 52.45069 4.72063 6004 ft 293 kts
2026-05-04 18:59 52.46481 4.72197 6010 ft 318 kts
2026-05-04 18:59 52.48812 4.72421 6026 ft 349 kts
2026-05-04 18:59 52.52030 4.72736 5999 ft 335 kts
2026-05-04 19:00 52.53558 4.72885 5979 ft 314 kts
2026-05-04 19:00 52.55628 4.73086 5990 ft 284 kts
2026-05-04 19:00 52.57491 4.73144 5989 ft 258 kts 350°
2026-05-04 19:00 52.59110 4.72212 6015 ft 243 kts 328°
2026-05-04 19:01 52.60384 4.70427 6011 ft 241 kts 307°
2026-05-04 19:01 52.61380 4.68158 6017 ft 246 kts 304°
2026-05-04 19:01 52.62692 4.65031 6027 ft 248 kts 304°
2026-05-04 19:01 52.63342 4.63475 6096 ft 249 kts 303°
2026-05-04 19:02 52.64317 4.61144 6810 ft 246 kts 303°
2026-05-04 19:02 52.65293 4.58817 7505 ft 248 kts 303°
2026-05-04 19:02 52.66276 4.56474 8203 ft 249 kts 302°
2026-05-04 19:02 52.67259 4.54132 8773 ft 255 kts 303°
2026-05-04 19:03 52.68289 4.51685 9493 ft 255 kts 302°
2026-05-04 19:03 52.69319 4.49225 9934 ft 272 kts 302°
2026-05-04 19:03 52.70419 4.46597 10294 ft 293 kts 303°
2026-05-04 19:03 52.71633 4.43701 10481 ft 320 kts 303°
2026-05-04 19:04 52.72944 4.40572 10876 ft 338 kts 303°
2026-05-04 19:04 52.74292 4.37354 11615 ft 344 kts 303°
2026-05-04 19:04 52.75614 4.34041 12448 ft 346 kts 300°
2026-05-04 19:04 52.76825 4.30572 13260 ft 350 kts 298°
2026-05-04 19:05 52.78006 4.27019 14026 ft 355 kts 298°
2026-05-04 19:05 52.79194 4.23413 14745 ft 358 kts 297°
2026-05-04 19:05 52.80381 4.19827 15475 ft 362 kts 297°
2026-05-04 19:05 52.81614 4.16124 16270 ft 363 kts 297°
2026-05-04 19:06 52.82824 4.12503 16973 ft 367 kts 297°
2026-05-04 19:06 52.84071 4.08778 17606 ft 373 kts 297°
2026-05-04 19:06 52.85340 4.04996 18283 ft 377 kts 297°
2026-05-04 19:06 52.86614 4.01198 19036 ft 376 kts 297°
2026-05-04 19:07 52.87846 3.97520 19661 ft 378 kts 297°
2026-05-04 19:07 52.89127 3.93687 20243 ft 382 kts 297°
2026-05-04 19:07 52.90421 3.89811 20856 ft 385 kts 297°
2026-05-04 19:07 52.91721 3.85911 21484 ft 387 kts 296°
2026-05-04 19:08 52.93022 3.82003 22096 ft 389 kts 296°
2026-05-04 19:08 52.94318 3.78104 22676 ft 392 kts 296°
2026-05-04 19:08 52.95637 3.74131 23313 ft 393 kts 296°
2026-05-04 19:08 52.96952 3.70161 23931 ft 393 kts 295°
2026-05-04 19:09 52.98277 3.66159 24333 ft 398 kts 295°
2026-05-04 19:09 52.99615 3.62110 24696 ft 402 kts 295°
2026-05-04 19:09 53.00966 3.58020 25141 ft 406 kts 295°
2026-05-04 19:09 53.02329 3.53895 25561 ft 409 kts 295°
2026-05-04 19:10 53.03706 3.49744 25965 ft 412 kts 295°
2026-05-04 19:10 53.05097 3.45552 26356 ft 415 kts 295°
2026-05-04 19:10 53.06496 3.41329 26735 ft 418 kts 295°
2026-05-04 19:10 53.07906 3.37064 27113 ft 422 kts 295°
2026-05-04 19:11 53.09290 3.32821 27483 ft 424 kts 293°
2026-05-04 19:11 53.10420 3.28304 27839 ft 423 kts 284°
2026-05-04 19:11 53.11116 3.23550 28210 ft 423 kts 279°
2026-05-04 19:11 53.11729 3.18736 28573 ft 425 kts 278°
2026-05-04 19:12 53.12340 3.13908 28912 ft 428 kts 278°
2026-05-04 19:12 53.13596 3.04139 29605 ft 434 kts 279°
2026-05-04 19:12 53.14221 2.99344 29840 ft 439 kts 279°
2026-05-04 19:13 53.14873 2.94361 30128 ft 441 kts 279°
2026-05-04 19:13 53.15529 2.89353 30450 ft 442 kts 279°
2026-05-04 19:13 53.16183 2.84353 30852 ft 441 kts 279°
2026-05-04 19:13 53.16833 2.79359 31280 ft 439 kts 279°
2026-05-04 19:14 53.17469 2.74449 31643 ft 439 kts 279°
2026-05-04 19:14 53.18110 2.69478 31978 ft 439 kts 280°
2026-05-04 19:14 53.18751 2.64494 32337 ft 438 kts 280°
2026-05-04 19:14 53.19388 2.59524 32710 ft 438 kts 280°
2026-05-04 19:15 53.20022 2.54560 33085 ft 437 kts 280°
2026-05-04 19:15 53.20655 2.49581 33312 ft 440 kts 281°
2026-05-04 19:15 53.21286 2.44575 33581 ft 441 kts 280°
2026-05-04 19:15 53.21911 2.39583 33971 ft 439 kts 281°
2026-05-04 19:16 53.22534 2.34583 34316 ft 438 kts 281°
2026-05-04 19:16 53.23152 2.29612 34576 ft 439 kts 281°
2026-05-04 19:16 53.23763 2.24677 34695 ft 443 kts 281°
2026-05-04 19:16 53.24387 2.19623 34892 ft 444 kts 281°
2026-05-04 19:17 53.25007 2.14580 35227 ft 442 kts 281°
2026-05-04 19:17 53.25622 2.09569 35563 ft 440 kts 280°
2026-05-04 19:17 53.26234 2.04562 35825 ft 440 kts 280°
2026-05-04 19:17 53.26827 1.99686 35949 ft 444 kts 281°
2026-05-04 19:18 53.27441 1.94622 36040 ft 445 kts 281°
2026-05-04 19:18 53.28662 1.84494 36050 ft 444 kts 281°
2026-05-04 19:19 53.29874 1.74369 36057 ft 443 kts 280°
2026-05-04 19:19 53.31069 1.64307 36055 ft 443 kts 280°
2026-05-04 19:20 53.32262 1.54199 36055 ft 443 kts 280°
2026-05-04 19:20 53.33551 1.44117 36051 ft 443 kts 283°
2026-05-04 19:21 53.35048 1.34094 36058 ft 444 kts 283°
2026-05-04 19:21 53.36548 1.24029 36055 ft 445 kts 283°
2026-05-04 19:22 53.38009 1.13941 36056 ft 446 kts 283°
2026-05-04 19:22 53.39454 1.03809 36056 ft 447 kts 283°
2026-05-04 19:23 53.40857 0.93886 36051 ft 449 kts 283°
2026-05-04 19:23 53.42301 0.83615 36054 ft 450 kts 283°
2026-05-04 19:24 53.43720 0.73458 36052 ft 451 kts 283°
2026-05-04 19:24 53.45143 0.63205 36051 ft 451 kts 283°
2026-05-04 19:25 53.46558 0.52940 36051 ft 452 kts 282°
2026-05-04 19:25 53.47968 0.42649 36045 ft 452 kts 283°
2026-05-04 19:26 53.49375 0.32339 36054 ft 453 kts 283°
2026-05-04 19:26 53.50773 0.22081 36049 ft 453 kts 283°
2026-05-04 19:27 53.52173 0.11742 36051 ft 454 kts 283°
2026-05-04 19:27 53.53556 0.01369 36051 ft 454 kts 282°
2026-05-04 19:28 53.54893 -0.08826 36045 ft 455 kts 283°
2026-05-04 19:28 53.56250 -0.19215 36049 ft 455 kts 283°
2026-05-04 19:29 53.57599 -0.29608 36050 ft 455 kts 282°
2026-05-04 19:29 53.58942 -0.40007 36049 ft 455 kts 282°
2026-05-04 19:30 53.60279 -0.50416 36049 ft 455 kts 282°
2026-05-04 19:30 53.61607 -0.60831 36046 ft 454 kts 282°
2026-05-04 19:31 53.62917 -0.71179 36045 ft 454 kts 282°
2026-05-04 19:31 53.64229 -0.81612 36043 ft 454 kts 282°
2026-05-04 19:32 53.65529 -0.92034 36041 ft 454 kts 282°
2026-05-04 19:32 53.66800 -1.02279 36042 ft 454 kts 282°
2026-05-04 19:33 53.68086 -1.12704 36037 ft 453 kts 282°
2026-05-04 19:33 53.69360 -1.23127 36038 ft 453 kts 282°
2026-05-04 19:34 53.70618 -1.33484 36031 ft 454 kts 282°
2026-05-04 19:34 53.71876 -1.43923 36029 ft 454 kts 282°
2026-05-04 19:35 53.73083 -1.54404 36029 ft 454 kts 281°
2026-05-04 19:35 53.74258 -1.64887 36023 ft 454 kts 281°
2026-05-04 19:36 53.75397 -1.75366 36021 ft 453 kts 281°
2026-05-04 19:36 53.76519 -1.85776 36025 ft 452 kts 281°
2026-05-04 19:37 53.77640 -1.96231 36046 ft 452 kts 281°
2026-05-04 19:37 53.78735 -2.06514 36044 ft 451 kts 281°
2026-05-04 19:38 53.79838 -2.16956 36047 ft 451 kts 281°
2026-05-04 19:38 53.80928 -2.27406 36051 ft 450 kts 281°
2026-05-04 19:39 53.82013 -2.37843 36053 ft 450 kts 281°
2026-05-04 19:39 53.83088 -2.48298 36055 ft 451 kts 281°
2026-05-04 19:40 53.84145 -2.58693 36052 ft 451 kts 280°
2026-05-04 19:40 53.85203 -2.69163 36061 ft 451 kts 281°
2026-05-04 19:41 53.86250 -2.79652 36067 ft 452 kts 280°
2026-05-04 19:41 53.87296 -2.90195 35981 ft 455 kts 281°
2026-05-04 19:41 53.87820 -2.95507 35522 ft 460 kts 281°
2026-05-04 19:42 53.88327 -3.00685 35129 ft 457 kts 280°
2026-05-04 19:42 53.88843 -3.05991 34709 ft 454 kts 280°
2026-05-04 19:42 53.89353 -3.11256 34304 ft 451 kts 281°
2026-05-04 19:42 53.89861 -3.16512 33862 ft 452 kts 281°
2026-05-04 19:43 53.90366 -3.21762 33350 ft 453 kts 281°
2026-05-04 19:43 53.90878 -3.27111 32339 ft 464 kts 281°
2026-05-04 19:43 53.91395 -3.32548 31433 ft 468 kts 281°
2026-05-04 19:43 53.91905 -3.37939 30545 ft 470 kts 281°
2026-05-04 19:44 53.92422 -3.43412 29599 ft 472 kts 281°
2026-05-04 19:44 53.92939 -3.48934 28595 ft 473 kts 280°
2026-05-04 19:44 53.93452 -3.54458 27628 ft 474 kts 280°
2026-05-04 19:44 53.93958 -3.59984 26698 ft 473 kts 279°
2026-05-04 19:45 53.94459 -3.65506 25788 ft 472 kts 279°
2026-05-04 19:45 53.94789 -3.69151 25200 ft 470 kts 279°
2026-05-04 19:45 53.95283 -3.74605 24860 ft 456 kts 279°
2026-05-04 19:45 53.95814 -3.79776 24933 ft 433 kts 285°
2026-05-04 19:46 53.96726 -3.84519 24969 ft 415 kts 294°
2026-05-04 19:46 53.98027 -3.88859 25035 ft 412 kts 302°
2026-05-04 19:46 53.99502 -3.93082 25040 ft 418 kts 302°
2026-05-04 19:46 54.00941 -3.97240 24904 ft 409 kts 302°
2026-05-04 19:47 54.02333 -4.01313 24395 ft 407 kts 301°
2026-05-04 19:47 54.03729 -4.05439 23759 ft 408 kts 301°
2026-05-04 19:47 54.05139 -4.09627 23016 ft 409 kts 300°
2026-05-04 19:47 54.06576 -4.13790 22418 ft 406 kts 303°
2026-05-04 19:48 54.08167 -4.17721 21919 ft 400 kts 306°
2026-05-04 19:48 54.09790 -4.21540 21435 ft 395 kts 307°
2026-05-04 19:48 54.11394 -4.25306 20924 ft 391 kts 306°
2026-05-04 19:48 54.12979 -4.29073 20373 ft 389 kts 306°
2026-05-04 19:49 54.14541 -4.32827 19845 ft 387 kts 306°
2026-05-04 19:49 54.16086 -4.36561 19319 ft 384 kts 305°
2026-05-04 19:49 54.17616 -4.40270 18881 ft 380 kts 305°
2026-05-04 19:49 54.19125 -4.43933 18464 ft 375 kts 305°
2026-05-04 19:50 54.20622 -4.47570 17826 ft 375 kts 305°
2026-05-04 19:50 54.22117 -4.51206 17373 ft 370 kts 304°
2026-05-04 19:50 54.23568 -4.54739 17265 ft 356 kts 304°
2026-05-04 19:50 54.24976 -4.58181 16907 ft 351 kts 304°
2026-05-04 19:51 54.26343 -4.61542 16568 ft 346 kts 304°
2026-05-04 19:51 54.27715 -4.64925 16094 ft 345 kts 304°
2026-05-04 19:51 54.29060 -4.68246 16017 ft 333 kts 304°
2026-05-04 19:51 54.30360 -4.71455 16002 ft 322 kts 303°
2026-05-04 19:52 54.31611 -4.74548 15901 ft 312 kts 304°
2026-05-04 19:52 54.32837 -4.77584 15618 ft 308 kts 304°
2026-05-04 19:52 54.34049 -4.80590 15315 ft 306 kts 304°
2026-05-04 19:52 54.35262 -4.83602 14981 ft 305 kts 304°
2026-05-04 19:53 54.36467 -4.86597 14684 ft 303 kts 304°
2026-05-04 19:53 54.37658 -4.89560 14376 ft 301 kts 304°
2026-05-04 19:53 54.38846 -4.92519 14047 ft 301 kts 303°
2026-05-04 19:53 54.40032 -4.95475 13738 ft 300 kts 303°
2026-05-04 19:54 54.41204 -4.98398 13521 ft 294 kts 303°
2026-05-04 19:54 54.42308 -5.01158 13209 ft 293 kts 303°
2026-05-04 19:54 54.43460 -5.04041 12860 ft 292 kts 303°
2026-05-04 19:54 54.44608 -5.06905 12543 ft 290 kts 304°
2026-05-04 19:55 54.45754 -5.09740 12231 ft 288 kts 304°
2026-05-04 19:55 54.46896 -5.12561 11925 ft 287 kts 304°
2026-05-04 19:55 54.48031 -5.15368 11620 ft 285 kts 304°
2026-05-04 19:55 54.49158 -5.18165 11324 ft 283 kts 304°
2026-05-04 19:56 54.50284 -5.20936 11023 ft 282 kts 306°
2026-05-04 19:56 54.51635 -5.23379 10711 ft 282 kts 319°
2026-05-04 19:56 54.53169 -5.25473 10426 ft 280 kts 321°
2026-05-04 19:56 54.54712 -5.27525 10130 ft 279 kts 321°
2026-05-04 19:57 54.56230 -5.29543 9829 ft 278 kts 321°
2026-05-04 19:57 54.57751 -5.31576 9512 ft 276 kts 321°
2026-05-04 19:57 54.59264 -5.33609 9219 ft 274 kts 320°
2026-05-04 19:57 54.60765 -5.35635 8903 ft 273 kts 320°
2026-05-04 19:58 54.62252 -5.37647 8606 ft 271 kts 321°
2026-05-04 19:58 54.63733 -5.39656 8312 ft 270 kts 320°
2026-05-04 19:58 54.65159 -5.41733 8124 ft 266 kts 310°
2026-05-04 19:58 54.66006 -5.44516 8098 ft 265 kts 282°
2026-05-04 19:59 54.65974 -5.47693 8092 ft 270 kts 256°
2026-05-04 19:59 54.65342 -5.50734 8088 ft 267 kts 250°
2026-05-04 19:59 54.64634 -5.53632 8072 ft 256 kts 249°
2026-05-04 19:59 54.63946 -5.56380 8069 ft 243 kts 249°
2026-05-04 20:00 54.63278 -5.59014 8074 ft 237 kts 248°
2026-05-04 20:00 54.62365 -5.61369 8080 ft 240 kts 225°
2026-05-04 20:00 54.61041 -5.63176 8079 ft 245 kts 219°
2026-05-04 20:00 54.59655 -5.64920 8086 ft 247 kts 219°
2026-05-04 20:01 54.58276 -5.66640 8086 ft 249 kts 219°
2026-05-04 20:01 54.56870 -5.68384 8077 ft 249 kts 218°
2026-05-04 20:01 54.55463 -5.70125 8059 ft 246 kts 218°
2026-05-04 20:01 54.54081 -5.71829 7906 ft 242 kts 218°
2026-05-04 20:02 54.52711 -5.73517 7629 ft 243 kts 218°
2026-05-04 20:02 54.51338 -5.75204 7389 ft 242 kts 218°
2026-05-04 20:02 54.49977 -5.76877 7157 ft 240 kts 218°
2026-05-04 20:02 54.48614 -5.78549 6927 ft 240 kts 218°
2026-05-04 20:03 54.47257 -5.80210 6681 ft 239 kts 218°
2026-05-04 20:03 54.45903 -5.81866 6467 ft 238 kts 218°
2026-05-04 20:03 54.44572 -5.83490 6214 ft 237 kts 218°
2026-05-04 20:03 54.43228 -5.85130 5966 ft 237 kts 218°
2026-05-04 20:04 54.41890 -5.86762 5720 ft 236 kts 219°
2026-05-04 20:04 54.40786 -5.88764 5449 ft 230 kts 246°
2026-05-04 20:04 54.40483 -5.91372 5197 ft 223 kts 279°
2026-05-04 20:04 54.40978 -5.93848 5024 ft 217 kts 296°
2026-05-04 20:05 54.41651 -5.96098 4960 ft 208 kts 298°
2026-05-04 20:05 54.42309 -5.98250 4889 ft 200 kts 298°
2026-05-04 20:05 54.42921 -6.00247 4808 ft 188 kts 298°
2026-05-04 20:05 54.43511 -6.02175 4654 ft 179 kts 298°
2026-05-04 20:06 54.44275 -6.03831 4279 ft 180 kts 328°
2026-05-04 20:06 54.45472 -6.04336 3938 ft 182 kts
2026-05-04 20:06 54.46609 -6.03376 3581 ft 189 kts 45°
2026-05-04 20:06 54.47485 -6.01709 3327 ft 184 kts 41°
2026-05-04 20:07 54.48422 -6.00279 3118 ft 177 kts 36°
2026-05-04 20:07 54.49402 -5.98978 2774 ft 179 kts 33°
2026-05-04 20:07 54.50408 -5.97734 2465 ft 180 kts 32°
2026-05-04 20:07 54.51428 -5.96536 2260 ft 175 kts 31°
2026-05-04 20:08 54.52442 -5.95360 1984 ft 177 kts 32°
2026-05-04 20:08 54.53463 -5.94153 1787 ft 178 kts 32°
2026-05-04 20:08 54.54473 -5.92949 1777 ft 175 kts 32°
2026-05-04 20:08 54.55462 -5.91743 2025 ft 175 kts 33°
2026-05-04 20:09 54.56439 -5.90496 3205 ft 162 kts 35°
2026-05-04 20:09 54.57285 -5.89289 4476 ft 168 kts 37°
2026-05-04 20:09 54.58328 -5.87718 4100 ft 227 kts 38°
2026-05-04 20:09 54.59649 -5.85693 3125 ft 270 kts 40°
2026-05-04 20:10 54.60985 -5.83575 3119 ft 252 kts 40°
2026-05-04 20:10 54.62244 -5.81553 3101 ft 244 kts 40°
2026-05-04 20:10 54.63474 -5.79551 3103 ft 245 kts 40°
2026-05-04 20:10 54.64725 -5.77509 3119 ft 250 kts 40°
2026-05-04 20:11 54.65995 -5.75439 3120 ft 251 kts 40°
2026-05-04 20:11 54.67324 -5.73555 3119 ft 250 kts 36°
2026-05-04 20:11 54.68396 -5.71153 3096 ft 254 kts 66°
2026-05-04 20:11 54.68632 -5.68161 3102 ft 260 kts 96°
2026-05-04 20:12 54.67986 -5.65264 3114 ft 260 kts 127°
2026-05-04 20:12 54.66614 -5.63313 3260 ft 256 kts 159°
2026-05-04 20:12 54.64889 -5.62780 3540 ft 253 kts 184°
2026-05-04 20:12 54.63117 -5.62989 3814 ft 256 kts 188°
2026-05-04 20:13 54.61342 -5.63289 3993 ft 256 kts 188°
2026-05-04 20:13 54.59556 -5.63618 3992 ft 259 kts 188°
2026-05-04 20:13 54.57760 -5.63960 3992 ft 258 kts 188°
2026-05-04 20:13 54.56024 -5.64294 3987 ft 250 kts 188°
2026-05-04 20:14 54.54325 -5.64620 3982 ft 240 kts 188°
2026-05-04 20:14 54.52681 -5.64932 3990 ft 235 kts 188°
2026-05-04 20:14 54.51060 -5.65235 3995 ft 234 kts 188°
2026-05-04 20:14 54.49462 -5.65713 3995 ft 232 kts 203°
2026-05-04 20:15 54.48010 -5.66877 4011 ft 231 kts 208°
2026-05-04 20:15 54.46559 -5.68091 4011 ft 232 kts 208°
2026-05-04 20:15 54.45100 -5.69309 4011 ft 233 kts 208°
2026-05-04 20:15 54.43636 -5.70527 4018 ft 234 kts 208°
2026-05-04 20:16 54.42165 -5.71749 4009 ft 235 kts 208°
2026-05-04 20:16 54.40692 -5.72972 4008 ft 235 kts 208°
2026-05-04 20:16 54.39216 -5.74198 4008 ft 235 kts 208°
2026-05-04 20:16 54.37746 -5.75419 4009 ft 235 kts 208°
2026-05-04 20:17 54.36273 -5.76642 4011 ft 235 kts 208°
2026-05-04 20:17 54.34800 -5.77860 4007 ft 235 kts 208°
2026-05-04 20:17 54.33330 -5.79071 4013 ft 235 kts 208°
2026-05-04 20:17 54.31855 -5.80282 4013 ft 234 kts 208°
2026-05-04 20:18 54.30571 -5.81854 4001 ft 228 kts 235°
2026-05-04 20:18 54.29980 -5.84276 4014 ft 220 kts 269°
2026-05-04 20:18 54.30258 -5.86790 4024 ft 215 kts 295°
2026-05-04 20:18 54.30908 -5.89105 4016 ft 217 kts 298°
2026-05-04 20:19 54.31595 -5.91409 4018 ft 218 kts 298°
2026-05-04 20:19 54.32293 -5.93733 4017 ft 220 kts 298°
2026-05-04 20:19 54.32999 -5.96067 4011 ft 220 kts 298°
2026-05-04 20:19 54.33707 -5.98394 4004 ft 219 kts 298°
2026-05-04 20:20 54.34378 -6.00602 4020 ft 203 kts 298°
2026-05-04 20:20 54.34999 -6.02659 3993 ft 186 kts 298°
2026-05-04 20:20 54.35583 -6.04574 4001 ft 179 kts 298°
2026-05-04 20:20 54.36156 -6.06450 4001 ft 177 kts 298°
2026-05-04 20:21 54.36730 -6.08332 4012 ft 178 kts 298°
2026-05-04 20:21 54.37305 -6.10217 4018 ft 179 kts 298°
2026-05-04 20:21 54.38861 -6.13353 4026 ft 178 kts 344°
2026-05-04 20:22 54.40097 -6.13284 4041 ft 181 kts
2026-05-04 20:22 54.41313 -6.12710 4020 ft 184 kts 24°
2026-05-04 20:22 54.42284 -6.11264 4029 ft 186 kts 42°
2026-05-04 20:22 54.43239 -6.09761 4033 ft 185 kts 36°
2026-05-04 20:23 54.44253 -6.08393 4022 ft 187 kts 33°
2026-05-04 20:23 54.45321 -6.07061 3852 ft 192 kts 32°
2026-05-04 20:23 54.46401 -6.05750 3593 ft 187 kts 32°
2026-05-04 20:23 54.47444 -6.04493 3353 ft 180 kts 32°
2026-05-04 20:24 54.48455 -6.03279 3109 ft 174 kts 32°
2026-05-04 20:24 54.49420 -6.02119 2865 ft 169 kts 32°
2026-05-04 20:24 54.50369 -6.00980 2644 ft 164 kts 32°
2026-05-04 20:24 54.51295 -5.99869 2423 ft 160 kts 32°
2026-05-04 20:25 54.52203 -5.98779 2240 ft 157 kts 32°
2026-05-04 20:25 54.53097 -5.97706 1995 ft 154 kts 32°
2026-05-04 20:25 54.53963 -5.96666 1772 ft 151 kts 32°
2026-05-04 20:25 54.54827 -5.95630 1567 ft 151 kts 32°
2026-05-04 20:26 54.55667 -5.94621 1354 ft 142 kts 32°
2026-05-04 20:26 54.56444 -5.93688 1235 ft 135 kts 33°
2026-05-04 20:26 54.57226 -5.92751 1016 ft 135 kts 33°
2026-05-04 20:26 54.57984 -5.91841 825 ft 133 kts 33°
2026-05-04 20:27 54.58740 -5.90935 639 ft 131 kts 33°
2026-05-04 20:27 54.59496 -5.90029 473 ft 133 kts 34°
2026-05-04 20:27 54.60256 -5.89125 305 ft 133 kts 34°
2026-05-04 20:27 54.61011 -5.88224 116 ft 131 kts 33°
2026-05-04 20:28 54.61730 -5.87350 19 ft 105 kts 34°
2026-05-04 20:28 54.62095 -5.86919 16 ft 53 kts 34°
2026-05-04 20:28 54.62347 -5.86612 20 ft 30 kts 35°
2026-05-04 20:28 54.62425 -5.86451 20 ft 15 kts 47°
2026-05-04 20:29 54.62474 -5.86459 20 ft 5 kts 296°
2026-05-04 20:29 54.62455 -5.86500 20 ft 7 kts 202°
2026-05-04 20:29 54.62380 -5.86568 21 ft 18 kts 214°
2026-05-04 20:29 54.62256 -5.86717 20 ft 24 kts 214°
2026-05-04 20:30 54.62096 -5.86910 15 ft 32 kts 214°
2026-05-04 20:30 54.61920 -5.87120 17 ft 16 kts 215°
2026-05-04 20:30 54.61822 -5.87141 16 ft 18 kts 133°
2026-05-04 20:30 54.61754 -5.86995 20 ft 8 kts 154°
2026-05-04 20:31 54.61719 -5.87001 20 ft 0 kts 204°
2026-05-04 20:31 54.61710 -5.87010 22 ft 4 kts 211°
2026-05-04 20:31 54.61688 -5.87034 20 ft 7 kts 213°
2026-05-04 20:31 54.61635 -5.87095 20 ft 11 kts 213°
2026-05-04 20:32 54.61592 -5.87117 20 ft 5 kts 173°
2026-05-04 20:32 54.61575 -5.87108 20 ft 2 kts 157°
2026-05-04 20:32 54.61560 -5.87100 20 ft 2 kts 162°
2026-05-04 20:32 54.61551 -5.87095 20 ft 3 kts 161°
2026-05-04 20:33 54.61546 -5.87092 20 ft 0 kts 161°
2026-05-04 20:33 54.61545 -5.87092 20 ft 0 kts 161°